[[{"header":{"parameterUnit":"m.s-1","parameterCategory":1,"la1":30.2991,"la2":30.254,"lo1":-89.0895,"lo2":-89.0444,"dy":0.0017,"dx":0.0017,"nx":28,"ny":28,"refTime":"2023-09-01T09:00:00:Z","depth":0,"parameterNumber":2,"parameterNumberName":"U-component_of_WINDS"},"data":[0,0,0,0,0,0,0,0,0,0,0,0,0,0,0,0,0,0,0,0,0,0,0,0,0,0,0,0,0,0,0,0,0,0,0,0,0,0,0,0,0,0,0,0,0,0,0,0,0,0,0,0,0,0,0,0,0,0,-1.677,-1.677,0,-1.6779,-1.6779,-1.6779,-1.6772,-1.6771,-1.6771,-1.6771,-1.6779,-1.6779,-1.678,0,0,0,0,0,0,0,0,0,0,0,0,0,-1.6744,-1.6744,-1.677,-1.677,-1.677,-1.6779,-1.6779,-1.6779,-1.6772,-1.6771,-1.6771,-1.6771,-1.6779,-1.6779,-1.678,0,0,0,0,0,0,0,0,0,0,0,0,0,-1.6754,-1.6745,-1.677,-1.6768,-1.6767,-1.6779,-1.6779,-1.678,-1.6772,-1.6771,-1.6771,-1.6771,-1.6779,-1.6779,-1.678,-1.6794,0,0,-1.6782,-1.6783,0,0,0,0,0,0,0,0,-1.6754,-1.6755,-1.6768,-1.6768,-1.6768,-1.6774,-1.6773,-1.6784,-1.6772,-1.677,-1.6771,-1.677,-1.6778,-1.6778,-1.6781,-1.6795,-1.6795,-1.6782,-1.6783,-1.6783,-1.6783,0,0,0,0,0,0,0,-1.6753,-1.6755,-1.6774,-1.6768,-1.6768,-1.6765,-1.6766,-1.6775,-1.6776,-1.677,-1.677,-1.6771,-1.6777,-1.678,-1.6781,-1.6795,-1.6782,-1.6783,-1.6784,-1.6784,-1.682,-1.682,0,0,0,0,0,0,-1.6753,-1.6754,-1.6773,-1.6774,-1.6759,-1.6766,-1.6767,-1.6772,-1.6776,-1.6776,-1.6771,-1.6771,-1.6779,-1.678,-1.6781,-1.6797,-1.6783,-1.6784,-1.6784,-1.6819,-1.682,-1.682,0,0,0,0,0,0,-1.6752,-1.6755,-1.6773,-1.6764,-1.6766,-1.6767,-1.6773,-1.6773,-1.6776,-1.6777,-1.6777,-1.6774,-1.6779,-1.678,-1.6791,-1.6798,-1.6784,-1.6785,-1.6819,-1.6819,-1.682,-1.683,0,0,0,0,0,0,-1.6752,-1.6754,-1.676,-1.6764,-1.6767,-1.6783,-1.6773,-1.6773,-1.6777,-1.6776,-1.678,-1.678,-1.6779,-1.679,-1.6792,-1.6798,-1.6786,-1.6818,-1.6819,-1.682,-1.6829,-1.6831,-1.6833,0,0,0,0,0,-1.6751,-1.6763,-1.6761,-1.6763,-1.6774,-1.6783,-1.6785,-1.6783,-1.6778,-1.6783,-1.6784,-1.678,-1.6797,-1.6791,-1.6793,-1.68,-1.6817,-1.6819,-1.682,-1.6828,-1.6831,-1.6833,0,0,0,0,0,0,-1.6759,-1.6763,-1.6761,-1.6775,-1.6779,-1.6782,-1.6789,-1.6786,-1.6791,-1.679,-1.6788,-1.6789,-1.68,-1.6801,-1.6795,-1.6813,-1.6806,-1.6808,-1.6812,-1.6814,-1.6816,-1.6815,-1.6786,0,0,0,0,0,-1.6763,-1.677,-1.6773,-1.6785,-1.6787,-1.6788,-1.6792,-1.679,-1.6794,-1.6796,-1.6797,-1.6801,-1.6807,-1.6811,-1.6817,-1.683,-1.683,-1.6835,-1.6837,-1.6839,-1.684,-1.6846,-1.6848,-1.6824,-1.6824,-1.6824,0,0,-1.677,-1.6773,-1.6778,-1.6787,-1.679,-1.6797,-1.6789,-1.6797,-1.6802,-1.6797,-1.6807,-1.6808,-1.6812,-1.6823,-1.6829,-1.6825,-1.6846,-1.684,-1.6841,-1.6841,-1.6847,-1.6849,-1.6851,-1.6825,-1.6825,-1.6824,0,0,-1.6786,-1.679,-1.68,-1.6803,-1.6808,-1.6808,-1.681,-1.6814,-1.6815,-1.6825,-1.682,-1.6826,-1.6837,-1.6839,-1.6842,-1.6859,-1.6855,-1.6861,-1.687,-1.6876,-1.6878,-1.688,-1.6885,-1.6887,-1.6863,-1.6863,-1.6863,0,-1.6794,-1.6806,-1.6805,-1.6813,-1.6817,-1.6813,-1.6822,-1.6825,-1.6831,-1.6833,-1.6829,-1.6842,-1.6845,-1.6856,-1.686,-1.6863,-1.6865,-1.686,-1.6878,-1.6879,-1.6881,-1.6886,-1.6888,-1.6863,-1.6863,-1.6863,-1.6863,0,-1.6815,-1.6823,-1.683,-1.6836,-1.6841,-1.6849,-1.6849,-1.6854,-1.6852,-1.6853,-1.6862,-1.6865,-1.6871,-1.6874,-1.6872,-1.6885,-1.6882,-1.6878,-1.6871,-1.6884,-1.6888,-1.689,-1.6864,-1.6864,-1.6864,-1.6864,0,0,-1.6836,-1.6842,-1.6845,-1.6847,-1.6852,-1.6857,-1.6866,-1.6872,-1.6875,-1.688,-1.6886,-1.6895,-1.6891,-1.6894,-1.6893,-1.6898,-1.691,-1.6893,-1.6893,-1.6895,-1.6923,-1.6925,-1.6928,-1.6908,-1.6908,-1.6909,-1.6922,0,-1.6852,-1.6867,-1.6866,-1.688,-1.6886,-1.6882,-1.6889,-1.6893,-1.6893,-1.6899,-1.6899,-1.6905,-1.69,-1.6902,-1.6907,-1.6908,-1.6916,-1.6907,-1.6913,-1.6913,-1.6911,-1.693,-1.6933,-1.6946,-1.6924,-1.6925,-1.6925,0,-1.6872,-1.6877,-1.6891,-1.6895,-1.6897,-1.6904,-1.6909,-1.6914,-1.6918,-1.6918,-1.6921,-1.6919,-1.6927,-1.692,-1.693,-1.6924,-1.6926,-1.6927,-1.6927,-1.6927,-1.6919,-1.6929,-1.695,-1.6951,-1.6928,-1.6928,-1.6927,0,-1.6885,-1.6895,-1.6905,-1.6907,-1.6912,-1.6916,-1.6918,-1.6921,-1.6925,-1.6929,-1.6931,-1.6936,-1.6939,-1.6943,-1.6941,-1.6937,-1.6951,-1.6945,-1.6951,-1.6951,-1.6953,-1.6953,-1.6973,-1.6957,-1.6957,-1.6956,-1.6956,0,-1.6902,-1.691,-1.6911,-1.6916,-1.6925,-1.6925,-1.6934,-1.6935,-1.6938,-1.6943,-1.6941,-1.6946,-1.6945,-1.6949,-1.6949,-1.6956,-1.6958,-1.6957,-1.6957,-1.6957,-1.6957,-1.6958,-1.6956,-1.6957,-1.6957,-1.6957,-1.6957,0,-1.6917,-1.6918,-1.6928,-1.6931,-1.6932,-1.6939,-1.6941,-1.6946,-1.6947,-1.6954,-1.6955,-1.6956,-1.6962,-1.6961,-1.6968,-1.6967,-1.6976,-1.6975,-1.6975,-1.6974,-1.698,-1.6979,-1.7001,-1.7003,-1.6986,-1.6986,-1.6987,0,-1.6927,-1.6933,-1.6937,-1.6941,-1.6943,-1.6949,-1.6953,-1.6952,-1.6956,-1.696,-1.6965,-1.697,-1.6974,-1.6983,-1.6984,-1.6989,-1.6987,-1.6994,-1.6987,-1.6987,-1.6986,-1.6985,-1.6985,-1.6995,-1.6995,-1.6996,-1.6996,0,-1.6944,-1.6944,-1.695,-1.6955,-1.6959,-1.6964,-1.6967,-1.697,-1.697,-1.6974,-1.698,-1.6984,-1.699,-1.6995,-1.6999,-1.7001,-1.6998,-1.6998,-1.6999,-1.6999,-1.6998,-1.6998,-1.6977,-1.6997,-1.6997,-1.6997,-1.6997,-1.6997,-1.6956,-1.6961,-1.6965,-1.6971,-1.6974,-1.6977,-1.6982,-1.6984,-1.6989,-1.6994,-1.6993,-1.7,-1.7002,-1.7008,-1.701,-1.7014,-1.7012,-1.7014,-1.7014,-1.7015,-1.7015,-1.6999,-1.7015,-1.7015,-1.7015,-1.7015,-1.7015,0,-1.6972,-1.6975,-1.698,-1.6986,-1.699,-1.6988,-1.6992,-1.6996,-1.7001,-1.7004,-1.7009,-1.7015,-1.702,-1.7021,-1.7026,-1.7029,-1.7028,-1.703,-1.7029,-1.7029,-1.7018,-1.7015,-1.7031,-1.7031,-1.7031,-1.7031,-1.7031,-1.7031,-1.6981,-1.699,-1.699,-1.7,-1.7002,-1.7008,-1.7011,-1.7014,-1.7016,-1.7023,-1.7028,-1.7029,-1.7031,-1.7035,-1.704,-1.704,-1.7041,-1.7044,-1.7043,-1.7032,-1.703,-1.7029,-1.7027,-1.7044,-1.7044,-1.7055,-1.7055,-1.7055]},{"header":{"parameterUnit":"m.s-1","parameterCategory":1,"la1":30.2991,"la2":30.254,"lo1":-89.0895,"lo2":-89.0444,"dy":0.0017,"dx":0.0017,"nx":28,"ny":28,"refTime":"2023-09-01T09:00:00:Z","depth":0,"parameterNumber":3,"parameterNumberName":"V-component_of_WINDS"},"data":[0,0,0,0,0,0,0,0,0,0,0,0,0,0,0,0,0,0,0,0,0,0,0,0,0,0,0,0,0,0,0,0,0,0,0,0,0,0,0,0,0,0,0,0,0,0,0,0,0,0,0,0,0,0,0,0,0,0,1.4596,1.4597,0,1.4682,1.4683,1.4684,1.4723,1.4723,1.4723,1.4723,1.4811,1.4814,1.4816,0,0,0,0,0,0,0,0,0,0,0,0,0,1.4468,1.447,1.4596,1.4597,1.4598,1.4682,1.4683,1.4684,1.4723,1.4723,1.4723,1.4723,1.4811,1.4813,1.4816,0,0,0,0,0,0,0,0,0,0,0,0,0,1.4535,1.4471,1.4596,1.4628,1.4632,1.4682,1.4683,1.4684,1.4723,1.4723,1.4723,1.4723,1.481,1.4813,1.4817,1.4841,0,0,1.4828,1.4829,0,0,0,0,0,0,0,0,1.4532,1.454,1.4622,1.4626,1.463,1.4692,1.467,1.4737,1.4723,1.4688,1.4723,1.4723,1.4772,1.4778,1.4795,1.4846,1.4849,1.4828,1.483,1.4832,1.4833,0,0,0,0,0,0,0,1.4527,1.4537,1.463,1.4623,1.4628,1.4638,1.4648,1.4683,1.473,1.4691,1.4695,1.4704,1.4774,1.4791,1.4797,1.4851,1.4828,1.4831,1.4833,1.4835,1.4929,1.4929,0,0,0,0,0,0,1.4517,1.4533,1.4627,1.4633,1.4579,1.4641,1.4651,1.4672,1.4729,1.4738,1.4704,1.4706,1.4785,1.4793,1.48,1.4835,1.4832,1.4835,1.4837,1.4929,1.4929,1.4929,0,0,0,0,0,0,1.4514,1.4525,1.4624,1.4584,1.4597,1.4643,1.4666,1.4674,1.4691,1.4739,1.4748,1.4713,1.4785,1.4795,1.4832,1.4838,1.4837,1.484,1.4928,1.4929,1.4929,1.4903,0,0,0,0,0,0,1.451,1.4524,1.4533,1.4583,1.4599,1.4653,1.4666,1.4676,1.4697,1.47,1.475,1.4758,1.4786,1.4826,1.4835,1.4843,1.4843,1.4928,1.4929,1.4929,1.4903,1.4902,1.4902,0,0,0,0,0,1.4505,1.4521,1.4533,1.4544,1.4611,1.4653,1.4662,1.4694,1.4698,1.4708,1.4739,1.4756,1.4836,1.4829,1.484,1.4849,1.4928,1.4928,1.4929,1.4904,1.4903,1.4902,0,0,0,0,0,0,1.447,1.4529,1.4542,1.4575,1.4609,1.466,1.4673,1.4691,1.4725,1.4726,1.4764,1.4775,1.4808,1.4833,1.4824,1.4878,1.4884,1.4886,1.4861,1.486,1.4859,1.4853,1.4846,0,0,0,0,0,1.4466,1.4495,1.4545,1.4569,1.4585,1.4626,1.4646,1.4667,1.4704,1.4718,1.4752,1.4787,1.4821,1.4842,1.4875,1.4907,1.492,1.4919,1.4918,1.4917,1.4919,1.4941,1.4942,1.4932,1.4932,1.4932,0,0,1.4458,1.4494,1.4509,1.4563,1.4591,1.4621,1.4638,1.4668,1.4691,1.4723,1.476,1.4786,1.4828,1.4863,1.488,1.4884,1.4925,1.4918,1.4917,1.492,1.4942,1.4942,1.4943,1.4932,1.4932,1.4932,0,0,1.4459,1.4488,1.4513,1.4542,1.4585,1.4613,1.4619,1.4668,1.4686,1.4724,1.4749,1.4777,1.4833,1.4863,1.4885,1.49,1.4918,1.4909,1.4905,1.4925,1.4926,1.4927,1.4934,1.4935,1.4911,1.4911,1.4911,0,1.4444,1.4489,1.4523,1.4552,1.4576,1.4607,1.4633,1.4659,1.4711,1.4727,1.4731,1.4804,1.4834,1.4878,1.4881,1.4898,1.4907,1.4904,1.4923,1.4924,1.4926,1.4932,1.4935,1.491,1.491,1.491,1.491,0,1.4469,1.45,1.4514,1.4565,1.459,1.4617,1.4656,1.4678,1.4698,1.4726,1.4765,1.4802,1.4845,1.4857,1.4876,1.4904,1.4905,1.4915,1.4922,1.4925,1.4932,1.4935,1.4908,1.4909,1.4909,1.4909,0,0,1.4448,1.4519,1.4524,1.4548,1.4599,1.4624,1.4654,1.4696,1.4714,1.475,1.4776,1.4824,1.4835,1.486,1.4884,1.4901,1.4913,1.491,1.4912,1.491,1.4948,1.494,1.4942,1.4925,1.4926,1.4926,1.4945,0,1.4457,1.4511,1.4544,1.4585,1.4615,1.4647,1.4673,1.4708,1.4735,1.4765,1.4795,1.4829,1.484,1.4856,1.4875,1.4907,1.4921,1.4906,1.4952,1.4953,1.4941,1.4946,1.4937,1.4953,1.4947,1.4948,1.4948,0,1.4474,1.451,1.4554,1.4604,1.4618,1.4641,1.4683,1.4711,1.4752,1.4771,1.4801,1.4825,1.4859,1.4863,1.4911,1.49,1.4921,1.494,1.4942,1.4947,1.4951,1.4953,1.4958,1.4961,1.4953,1.4952,1.4952,0,1.4456,1.4515,1.455,1.457,1.4629,1.4644,1.467,1.4711,1.4735,1.4772,1.4788,1.4828,1.4851,1.4882,1.4917,1.4916,1.4963,1.4969,1.498,1.4979,1.4988,1.4987,1.4998,1.5,1.5,1.5,1.5,0,1.4463,1.4489,1.4543,1.4564,1.4596,1.4633,1.4663,1.4691,1.4728,1.4757,1.4786,1.4812,1.4857,1.4889,1.4916,1.4953,1.4963,1.498,1.4987,1.4978,1.4976,1.4992,1.4992,1.5001,1.5001,1.5001,1.5,0,1.4448,1.4485,1.4525,1.4579,1.4593,1.4613,1.466,1.4682,1.4712,1.4747,1.4758,1.4804,1.4844,1.4882,1.4935,1.4954,1.4991,1.5,1.4977,1.4981,1.4991,1.499,1.5013,1.5018,1.5015,1.5015,1.5015,0,1.445,1.4471,1.4527,1.4548,1.4573,1.4607,1.4632,1.467,1.4695,1.4745,1.4762,1.4804,1.484,1.4902,1.4941,1.4982,1.4993,1.4998,1.4999,1.499,1.4995,1.4993,1.4996,1.4997,1.4997,1.4997,1.4997,0,1.4449,1.4467,1.4502,1.4544,1.4573,1.4607,1.4643,1.4659,1.4705,1.4732,1.4773,1.48,1.4855,1.4897,1.4943,1.4971,1.4992,1.4996,1.5001,1.4992,1.4979,1.4988,1.4975,1.4996,1.4996,1.4996,1.4996,1.4996,1.4444,1.4465,1.4508,1.4546,1.4578,1.4611,1.4636,1.4669,1.4704,1.4751,1.4773,1.4814,1.4858,1.4922,1.4949,1.4984,1.4989,1.4996,1.4998,1.4999,1.4998,1.4973,1.4992,1.4992,1.4992,1.4992,1.4992,0,1.4446,1.4476,1.4511,1.4561,1.4591,1.4609,1.465,1.4675,1.4711,1.475,1.4785,1.4833,1.4874,1.4917,1.4962,1.4981,1.4992,1.4991,1.4991,1.4997,1.499,1.4982,1.4982,1.4982,1.4982,1.4982,1.4982,1.4982,1.4451,1.4488,1.4512,1.4566,1.4596,1.4637,1.4659,1.4691,1.4722,1.4775,1.481,1.4837,1.4879,1.4926,1.4966,1.4978,1.4993,1.499,1.5004,1.4997,1.4997,1.4998,1.4991,1.4993,1.4993,1.5009,1.501,1.501]}]]